Home > Weather > Guelph > Past weeks

Flag for Canada Past Weather in Guelph, Ontario, Canada — Yesterday and Last 2 Weeks

Now
63 °F

Sunny.


Feels Like: 63 °F
Forecast: 61 / 86 °F
Wind: No wind

Location: Waterloo Well

Current Time: May 28, 2016 at 7:51:20 AM

Latest Report: May 28, 2016 at 7:00 AM


Visibility: 9 mi

Pressure: 30.06 "Hg

Humidity: 100%

Dew Point: 63 °F

Location of GuelphLocation

Past Weather in Guelph — Graph

°F

Guelph Temperature Yesterday

Maximum temperature yesterday: 84 °F (at 4:00 PM)
Minimum temperature yesterday: 64 °F (at 6:00 AM)
Average temperature yesterday: 73 °F

High & Low Weather Summary for the Past Weeks

 TemperatureHumidityPressure
High84 °F (May 27, 4:00 PM)100% (May 14, 6:00 AM)30.30 "Hg (May 14, 6:00 AM)
Low32 °F (May 16, 1:00 AM)24% (May 24, 5:00 PM)29.48 "Hg (May 14, 10:03 AM)
Average57 °F66%30.01 "Hg
* Reported May 13 6:00 AM — May 28 6:00 AM, Guelph, Weather by CustomWeather, © 2016

Note: Actual official high and low records may vary slightly from our data, if they occured in-between our weather recording intervals... More about our weather records

Advertising

Guelph Weather History for the Previous 24 Hours

Scroll right to see more
 ConditionsComfort  
Time TempWeatherWind HumidityBarometerVisibility
6:00 AM
Sat, May 28
61 °FFog.2 mph100%30.04 "Hg5 mi
5:00 AM61 °FFog.3 mph100%30.04 "Hg4 mi
4:00 AM63 °FFog.3 mph94%30.03 "Hg6 mi
3:04 AM59 °FFog.5 mph100%30.03 "Hg6 mi
2:00 AM63 °FClear.2 mph94%30.02 "Hg9 mi
1:00 AM63 °FPartly cloudy.3 mph94%30.02 "Hg9 mi
12:00 AM63 °FPassing clouds.2 mph100%30.02 "Hg9 mi
11:00 PM
Fri, May 27
64 °FClear.No wind94%30.01 "Hg9 mi
10:58 PM64 °FClear.No wind94%30.01 "Hg9 mi
10:02 PM68 °FPartly cloudy.2 mph83%30.01 "Hg9 mi
9:00 PM75 °FPassing clouds.2 mph65%29.98 "Hg9 mi
8:00 PM77 °FPartly sunny.7 mph61%29.97 "Hg9 mi
7:00 PM79 °FPartly sunny.13 mph58%29.96 "Hg9 mi
6:00 PM81 °FBroken clouds.12 mph54%29.95 "Hg9 mi
5:00 PM84 °FBroken clouds.14 mph48%29.95 "Hg9 mi
4:00 PM84 °FBroken clouds.8 mph51%29.96 "Hg9 mi
3:00 PM82 °FPartly sunny.9 mph55%29.96 "Hg9 mi
2:00 PM82 °FBroken clouds.3 mph55%29.97 "Hg9 mi
1:00 PM81 °FScattered clouds.6 mph58%29.97 "Hg9 mi
12:00 PM79 °FBroken clouds.5 mph65%29.96 "Hg9 mi
11:00 AM77 °FScattered clouds.3 mph74%29.97 "Hg8 mi
10:00 AM75 °FBroken clouds.3 mph74%29.96 "Hg8 mi
9:00 AM73 °FSunny.5 mph78%29.96 "Hg9 mi
8:00 AM70 °FFog.7 mph88%29.97 "Hg6 mi
7:00 AM66 °FFog.3 mph94%29.96 "Hg3 mi
Weather by CustomWeather, © 2016

See weather overviewHow to use our weather pages